Simultaneous Nadir Overpasses (SNOs) Predictions

Prediction of SNOs over PacNW region [( 10.00, 139.50) to ( 22.70, 165.60)] between AQUA and NPP Satellites:

Table of predicted SNOs over PacNW region for the next 30.0 days since TLE Epoch: 5/22/2012
Index Date (AQUA) Time (AQUA) AQUA Lat,Lon Date (NPP) Time (NPP) NPP Lat,Lon Distance(km) Time Diff (sec)
1 05/26/2012 15:10:24 21.46, 159.56 05/26/2012 15:10:04 21.97, 156.90 281.09 20
2 06/03/2012 15:59:15 22.59, 147.52 06/03/2012 16:00:16 23.27, 144.57 312.07 61
3 06/11/2012 15:09:32 22.33, 159.89 06/11/2012 15:09:26 22.87, 157.19 283.99 6




NCC Satellite Simultaneous Nadir Overpasses (SNOs) Prediction Service
